EW6739 Weather Reports


Display with metric or nautical units.
time (UTC)temp
F
wind
direction
speed
MPH
gust
MPH
rain 1hr
in
rain 24hr
in
rain mn
in
humidity
%
barometer
mb
20210922123043 71 98 0.0 0.0 0.00 0.04 0.00 93 1013.4
20210922121513 71 97 0.0 0.0 0.00 0.04 0.00 93 1013.3
20210922120003 71 97 0.0 0.0 0.00 0.04 0.00 92 1013.3
20210922114628 71 95 0.0 0.0 0.00 0.04 0.00 92 1013.1
20210922113121 71 95 0.0 0.0 0.00 0.04 0.00 92 1013.0
20210922111647 70 95 0.0 0.0 0.00 0.04 0.00 92 1012.9
20210922110105 71 95 0.0 0.0 0.00 0.04 0.00 92 1013.0
20210922104546 70 95 0.0 0.0 0.00 0.04 0.00 92 1013.0
20210922103232 70 95 0.0 0.0 0.00 0.04 0.00 92 1013.0
20210922101646 70 95 0.0 0.0 0.00 0.04 0.00 92 1013.1
20210922100106 70 95 0.0 0.0 0.00 0.04 0.00 92 1013.2
20210922094615 70 95 0.0 0.0 0.00 0.04 0.00 92 1013.3
20210922093103 70 95 0.0 0.0 0.00 0.04 0.00 92 1013.4
20210922091626 70 95 0.0 0.0 0.00 0.04 0.00 92 1013.5
20210922090043 70 95 0.0 0.0 0.00 0.04 0.00 92 1013.7
20210922084557 70 95 0.0 0.0 0.00 0.04 0.00 92 1013.8
20210922083043 70 95 0.0 0.0 0.00 0.04 0.00 92 1013.9
20210922081547 70 95 0.0 0.0 0.00 0.04 0.00 92 1013.9
20210922080049 70 95 0.0 0.0 0.00 0.04 0.00 91 1014.1
20210922074536 70 95 0.0 0.0 0.00 0.04 0.00 91 1014.2
20210922073038 70 95 0.0 1.0 0.00 0.04 0.00 91 1014.3
20210922071608 70 96 0.0 0.0 0.00 0.04 0.00 91 1014.4
20210922070055 70 99 0.0 0.0 0.00 0.04 0.00 91 1014.6
20210922064634 70 99 0.0 1.0 0.00 0.05 0.00 91 1014.9
20210922063025 70 75 0.0 0.0 0.00 0.05 0.00 91 1015.2
20210922061524 70 75 0.0 0.0 0.00 0.05 0.00 91 1015.5
20210922060025 70 139 0.0 1.0 0.00 0.05 0.00 90 1015.6
20210922054529 70 47 0.0 0.0 0.00 0.05 0.00 90 1015.7
20210922053019 70 112 0.0 1.0 0.00 0.05 0.00 90 1015.6
20210922051513 70 128 0.0 0.0 0.00 0.05 0.00 90 1015.9
20210922050013 70 104 0.0 0.0 0.00 0.05 0.00 90 1016.1
20210922044507 70 104 0.0 1.0 0.00 0.06 0.00 90 1016.4
20210922043004 70 118 0.0 1.0 0.00 0.06 0.00 90 1016.7
20210922041503 70 139 0.0 1.0 0.00 0.06 0.00 91 1016.8
20210922040239 69 94 0.0 0.0 0.00 0.06 0.00 91 1016.9
20210922034641 69 86 0.0 0.0 0.00 0.06 0.06 91 1016.9
20210922033220 69 86 0.0 0.0 0.00 0.06 0.06 90 1017.0
20210922031742 69 86 0.0 0.0 0.00 0.06 0.06 90 1017.0
20210922030114 70 308 0.0 0.0 0.00 0.06 0.06 89 1017.3
20210922024632 70 307 0.0 0.0 0.00 0.06 0.06 89 1017.2
20210922023114 71 308 0.0 1.0 0.00 0.06 0.06 88 1017.1
20210922021820 71 150 0.0 0.0 0.00 0.06 0.06 88 1017.0
20210922020111 71 147 0.0 1.0 0.00 0.06 0.06 88 1017.1
20210922014625 71 69 0.0 2.0 0.00 0.06 0.06 88 1017.2
20210922013141 71 106 0.0 1.0 0.00 0.06 0.06 87 1017.2
20210922011639 71 125 0.0 1.0 0.00 0.06 0.06 87 1017.0
20210922010318 72 105 0.0 0.0 0.00 0.06 0.06 87 1017.0
20210922004645 72 148 0.0 0.0 0.00 0.06 0.06 87 1017.1
20210922003202 72 122 0.0 1.0 0.00 0.06 0.06 87 1016.5
20210922001609 73 41 0.0 0.0 0.00 0.06 0.06 86 1016.5
20210922000147 73 122 0.0 1.0 0.00 0.06 0.06 86 1016.3
20210921234622 74 134 0.0 4.0 0.00 0.10 0.06 85 1016.1
20210921233206 74 98 0.0 1.0 0.00 0.10 0.06 85 1015.9
20210921231707 75 113 0.0 1.0 0.00 0.10 0.06 85 1015.6
20210921230141 75 131 0.0 0.0 0.00 0.10 0.06 84 1015.3
20210921224636 76 75 0.0 1.0 0.00 0.11 0.06 84 1015.0
20210921223116 76 59 0.0 0.0 0.00 0.11 0.06 84 1015.4
20210921221628 77 59 0.0 1.0 0.00 0.11 0.06 82 1015.7
20210921220205 77 113 0.0 2.0 0.00 0.11 0.06 82 1015.5
20210921214622 78 100 0.0 2.0 0.00 0.13 0.06 81 1015.8
20210921213113 78 145 0.0 0.0 0.00 0.13 0.06 80 1015.6
20210921211603 79 307 0.0 1.0 0.00 0.13 0.06 80 1015.6
20210921210212 79 134 0.0 1.0 0.00 0.13 0.06 80 1015.6
20210921204637 79 165 0.0 1.0 0.00 0.14 0.06 81 1015.6
20210921203157 79 16 0.0 2.0 0.00 0.14 0.06 81 1015.6
20210921201554 79 81 0.0 1.0 0.00 0.14 0.06 80 1015.8
20210921200059 80 15 0.0 1.0 0.00 0.14 0.06 79 1015.9
20210921194604 80 150 0.0 1.0 0.00 0.15 0.06 79 1015.9
20210921193110 79 4 0.0 0.0 0.00 0.15 0.06 80 1016.1
20210921191558 79 11 0.0 1.0 0.00 0.15 0.06 80 1016.6
20210921190100 80 153 0.0 2.0 0.00 0.15 0.06 79 1016.7
20210921184601 79 149 0.0 2.0 0.00 0.15 0.06 80 1017.0
20210921183027 79 17 0.0 2.0 0.00 0.15 0.06 81 1017.2
20210921181540 79 37 0.0 1.0 0.00 0.15 0.06 81 1017.4
20210921180109 78 339 0.0 1.0 0.00 0.15 0.06 81 1018.0
20210921174528 77 54 0.0 0.0 0.00 0.19 0.06 82 1018.2
20210921173023 77 22 0.0 1.0 0.00 0.19 0.06 86 1018.4
20210921171522 76 182 0.0 0.0 0.00 0.19 0.06 89 1018.5
20210921170021 75 182 0.0 2.0 0.00 0.19 0.06 87 1018.7
20210921164532 76 178 0.0 0.0 0.00 0.42 0.06 86 1018.8
20210921163025 76 167 0.0 0.0 0.00 0.42 0.06 89 1018.9
20210921161518 75 41 0.0 0.0 0.00 0.42 0.06 89 1019.1
20210921160021 75 43 0.0 1.0 0.00 0.42 0.06 88 1019.1
20210921154518 74 56 0.0 0.0 0.00 0.45 0.06 90 1019.2
20210921153006 74 70 0.0 0.0 0.00 0.45 0.06 92 1019.0
20210921151513 73 70 0.0 0.0 0.00 0.45 0.06 92 1019.0
20210921144734 73 70 0.0 0.0 0.04 0.51 0.06 93 1019.0
20210921143137 72 143 0.0 0.0 0.04 0.51 0.06 93 1018.9
20210921141631 72 148 0.0 1.0 0.04 0.51 0.06 93 1018.8
20210921140202 72 70 0.0 0.0 0.03 0.50 0.05 93 1018.6
20210921134621 71 72 0.0 0.0 0.00 0.47 0.02 93 1018.6
20210921133152 71 72 0.0 0.0 0.00 0.47 0.02 94 1018.5
20210921131600 70 72 0.0 0.0 0.00 0.47 0.02 93 1018.5
20210921130102 70 72 0.0 0.0 0.00 0.47 0.02 93 1018.7
20210921124624 70 72 0.0 0.0 0.00 0.51 0.02 93 1018.5